Zurück zum Katalog

TITAN 3C TRANSTAGE DEB

AktivLEO
NORAD 1653·DEBRIS·🇺🇸 United States

Gestartet Oct 15, 1965 von Cape Canaveral Space Force Station

Loading…

Nächste Überflüge (nächste 24 Stunden)

TLE

AktuellSource: Space-Track

Epoche: Sep 14, 2026, 13:16 UTC

1  1653U 65082Q   26257.55325418  .00000281  00000-0  44311-4 0  9999
2  1653  32.1202 354.2993 0040563 145.3058 215.0243 14.64383129224619

Verfolge TITAN 3C TRANSTAGE DEB in Echtzeit mit AllMySat

Download on the App Store